Cloud_Cover
12 12 12 8 12 12 12 20 12 24 36 32 32 24 24 20 12 8 8 0 0 0 0 0 0 0 0 0 0 0 0 0 0 0 0 0 0 0 0 0 0 0 0 0 0 0 0 0 0 0 8 8 8 8 8 8 12 12 12 12 24 24 24 24 20 20 12 8 8
20 20 20 20 20 20 20 24 20 24 36 36 36 32 24 24 20 12 12 8 12 12 12 12 12 12 12 8 0 0 0 0 0 0 0 0 0 0 0 0 0 0 0 0 0 0 0 0 8 12 12 12 12 12 12 12 20 20 24 24 32 32 32 32 24 24 24 20 12
24 24 24 24 24 24 24 32 32 24 32 36 32 32 32 24 20 12 8 8 12 12 20 20 20 20 20 12 12 8 8 8 0 0 0 0 0 0 0 0 0 0 8 8 8 8 8 8 20 20 20 20 20 24 24 24 24 32 32 32 32 32 32 32 32 32 24 24 24
24 24 32 32 32 32 32 32 32 24 20 24 24 32 32 24 20 20 20 12 12 12 20 24 24 24 20 20 20 12 8 8 8 0 0 0 8 8 8 0 0 0 8 20 20 20 20 24 24 24 24 24 24 24 32 32 32 36 36 36 36 36 36 32 32 32 32 32 36
32 32 32 32 32 32 32 24 24 20 20 20 24 24 24 24 24 20 20 20 20 12 20 24 24 24 24 24 24 20 12 8 8 8 8 0 8 12 12 12 8 8 12 32 32 24 24 32 32 32 24 24 32 32 36 36 36 36 36 44 44 48 48 48 44 36 36 36 48
36 36 32 32 32 24 24 24 24 20 20 20 20 20 20 20 24 20 20 20 20 20 20 24 24 32 32 24 32 24 12 12 8 8 8 8 8 20 24 20 20 12 20 32 36 36 36 36 36 32 32 36 36 36 36 36 36 36 44 56 56 48 48 48 48 48 48 48 64
32 32 32 24 24 24 24 24 24 20 20 20 20 20 20 20 20 20 20 20 20 20 20 24 32 32 24 24 24 24 20 12 8 8 12 12 8 20 32 32 24 24 24 32 36 36 36 36 36 36 36 44 44 44 44 44 44 48 56 64 64 68 68 76 64 64 68 64 68
20 20 24 24 20 24 24 20 20 20 20 20 12 20 12 12 12 12 12 12 12 20 12 12 20 20 20 24 24 20 12 8 8 12 20 12 12 24 32 36 32 32 32 32 36 36 36 36 36 44 44 44 48 48 48 44 48 64 76 76 76 80 80 80 68 68 76 76 68
20 20 20 20 20 20 24 20 20 20 12 12 12 12 12 12 12 8 8 12 12 8 8 12 12 20 20 20 20 12 12 8 8 12 20 20 20 24 32 36 36 36 36 36 36 36 36 36 44 44 48 48 48 48 48 56 64 68 76 76 76 76 76 76 76 68 64 48 48
24 20 20 20 20 20 20 20 20 20 12 12 12 12 12 8 8 8 8 12 8 12 12 8 20 20 20 20 12 12 8 8 8 12 20 20 24 24 24 36 36 44 44 36 36 36 36 44 44 48 48 56 48 56 68 76 76 76 76 76 76 68 56 56 64 56 44 36 44
24 24 24 24 24 24 20 20 20 20 12 12 8 8 8 8 8 8 8 8 8 12 12 12 20 20 20 20 12 12 12 8 12 12 12 12 12 20 24 32 36 44 44 44 36 36 36 36 44 44 48 64 68 76 76 76 68 68 64 48 56 56 44 44 44 44 36 36 36
32 32 24 24 24 24 24 24 20 12 12 12 12 12 8 8 8 8 8 8 8 12 12 12 20 20 12 20 12 12 12 12 12 12 8 8 8 8 12 20 32 36 36 32 32 32 24 20 36 48 64 68 76 76 68 64 48 44 44 36 44 44 44 36 36 36 36 36 36
36 32 32 32 32 24 24 24 20 12 12 12 12 12 8 8 0 8 8 12 12 12 12 12 12 12 12 12 12 12 12 12 12 8 8 8 8 8 8 20 24 20 20 20 12 12 8 0 24 44 48 48 48 44 36 8 20 20 24 24 32 36 36 36 36 32 24 24 24
36 36 32 32 32 24 24 24 20 20 20 20 20 12 8 8 8 8 12 12 12 12 12 12 12 12 12 12 12 12 12 8 8 8 8 8 0 8 12 24 20 20 12 8 0 0 0 0 0 8 8 8 0 0 8 0 0 0 8 12 20 24 32 32 32 24 20 12 12
36 32 32 32 32 32 24 24 24 24 24 24 20 12 8 8 8 8 8 12 12 12 12 12 12 12 12 12 12 8 8 8 8 0 0 0 8 20 20 20 12 8 0 0 0 0 0 0 0 0 0 0 0 0 0 0 0 0 0 0 8 12 20 20 20 12 8 8 8
32 32 32 32 32 32 32 24 32 32 32 24 20 12 12 8 8 8 12 12 12 12 12 12 12 12 12 8 8 8 8 0 8 0 8 8 20 20 20 8 8 0 0 0 0 0 0 0 0 0 0 0 0 0 0 0 0 0 0 0 0 0 8 8 8 8 0 0 8
32 32 32 32 32 32 32 32 36 36 32 20 20 12 12 8 8 8 8 12 12 12 12 12 12 8 8 8 8 8 8 8 8 8 8 20 20 12 8 0 0 0 0 0 0 0 0 0 0 0 0 0 0 0 0 0 0 8 8 8 0 8 8 8 8 8 8 8 8
36 32 32 24 32 32 32 36 36 32 24 20 12 12 8 8 8 8 12 12 12 12 12 8 8 8 8 8 8 8 8 8 8 8 12 12 8 0 0 0 0 0 0 0 0 0 0 0 0 0 0 0 8 8 12 12 20 20 20 12 12 12 12 8 8 8 8 0 0
36 36 44 36 44 44 36 36 32 24 24 20 12 12 8 8 8 12 12 12 12 8 8 8 8 8 8 8 8 12 12 12 12 12 12 8 0 0 0 0 0 0 0 0 0 0 0 0 0 8 8 8 20 24 24 24 24 24 24 20 20 20 12 8 0 0 0 0 0
48 48 48 48 44 44 36 32 24 24 24 12 12 12 12 12 12 12 12 8 8 8 8 8 8 8 8 0 12 20 20 20 12 12 8 0 0 0 0 0 0 0 0 0 0 0 8 12 20 20 20 20 24 32 32 24 24 20 20 20 12 12 8 0 0 0 0 0 0
56 56 48 48 44 36 32 24 32 32 24 20 20 20 20 20 12 12 8 8 8 8 8 8 8 0 0 0 20 24 20 12 12 8 0 0 0 0 0 0 0 0 0 0 0 0 8 24 24 24 24 12 12 12 12 8 8 8 8 0 0 0 0 0 0 0 0 8 8
56 56 48 44 36 32 32 36 36 32 24 20 20 20 20 12 12 8 8 8 8 8 8 0 0 8 12 20 24 20 12 8 0 0 0 0 0 0 0 0 0 0 0 0 0 0 0 20 20 20 12 0 0 0 0 0 0 0 0 0 0 0 0 0 0 0 0 8 12
56 48 48 44 36 32 36 48 36 32 24 24 20 20 12 12 8 8 8 8 8 0 0 8 12 24 24 24 20 12 8 0 0 0 0 0 0 0 0 0 0 0 0 0 0 0 0 12 8 0 0 0 0 0 0 0 0 0 0 0 0 0 0 0 0 0 8 12 20
56 48 44 36 36 44 48 48 36 24 24 20 12 12 8 8 8 8 8 0 8 8 12 24 32 32 32 20 12 8 0 0 0 0 0 0 0 0 0 0 0 0 0 0 0 0 0 0 0 0 0 0 0 0 0 0 0 0 0 0 0 0 0 0 0 0 8 24 20
48 48 44 36 36 44 48 44 32 24 20 12 12 8 8 8 8 8 8 12 12 20 20 24 32 24 20 12 12 8 0 0 0 0 0 0 0 0 0 0 0 0 0 0 0 0 0 0 0 0 0 0 0 0 0 0 0 0 0 0 0 0 0 0 0 0 8 32 20
48 44 44 36 48 48 44 36 24 20 20 12 8 8 8 8 8 8 12 24 24 24 24 24 24 20 20 12 12 8 0 0 0 0 0 0 0 0 0 0 0 0 0 0 0 0 0 0 0 0 0 0 0 0 0 0 0 0 0 0 0 0 0 0 0 0 8 32 8
48 44 44 36 48 48 36 32 24 20 12 12 8 8 12 12 20 24 32 32 32 32 32 24 20 20 12 12 12 12 8 8 0 0 0 0 0 0 0 0 8 8 8 0 0 0 0 0 0 0 0 0 0 0 0 0 0 0 0 0 0 0 0 0 0 0 0 0 24
48 48 44 44 44 44 36 32 24 20 12 12 12 20 24 32 36 36 36 36 32 24 24 20 20 20 12 12 12 12 12 12 8 0 0 0 0 0 8 8 8 8 8 8 0 0 0 0 0 0 0 0 0 0 0 0 0 0 0 0 0 0 0 0 0 0 8 44 24
48 48 44 44 44 36 32 32 20 20 20 24 32 36 44 48 44 36 36 32 24 24 20 20 20 20 20 20 20 20 12 8 8 0 0 0 8 8 12 12 12 12 8 0 0 0 0 0 0 0 0 0 0 0 0 0 0 0 0 0 0 0 0 0 0 0 0 0 64
48 48 48 44 44 36 32 24 32 32 36 44 48 48 44 44 36 32 24 24 20 20 24 24 24 24 24 24 20 20 20 12 8 8 8 8 12 12 12 12 12 12 12 8 0 0 0 0 0 0 0 0 0 0 0 0 0 0 0 0 0 0 0 0 0 0 20 88 88
48 44 44 44 36 36 32 32 24 24 24 32 36 36 32 32 24 24 24 24 24 24 24 24 24 24 24 24 24 20 20 12 12 8 8 8 12 12 12 12 12 12 8 8 0 0 0 0 0 0 0 0 0 0 0 0 0 0 0 0 0 0 0 0 0 44 88 88 80
48 44 44 44 44 44 44 36 32 32 32 32 32 24 24 24 32 32 32 24 32 24 24 20 24 24 24 24 24 20 20 20 20 12 8 8 8 8 8 8 8 0 0 0 0 0 0 0 0 0 0 0 0 0 0 0 0 0 0 0 0 0 0 0 20 48 80 80 76
48 48 48 48 48 48 48 44 44 36 36 32 32 32 32 36 36 36 32 32 32 24 20 20 24 24 24 24 20 24 24 24 20 12 8 8 8 8 8 8 8 0 0 0 0 0 0 0 0 0 0 0 0 0 0 0 0 0 0 0 0 0 0 20 48 48 44 56 76
48 48 48 44 44 44 44 44 36 36 36 36 36 36 36 44 44 36 36 32 24 20 12 20 24 24 24 24 24 24 24 24 20 20 12 8 8 8 8 8 0 0 0 0 0 0 0 0 0 0 0 0 0 0 0 0 0 0 0 0 0 0 20 76 64 68 76 64 56
48 48 44 44 36 36 36 36 36 36 36 36 44 44 44 36 36 32 24 24 12 12 20 24 24 20 20 24 24 24 24 24 20 20 12 8 8 0 0 0 0 0 0 0 0 0 0 0 0 0 0 0 0 0 0 0 0 0 0 0 8 20 24 20 68 76 56 48 12
48 44 44 36 36 32 32 36 36 36 36 36 36 36 32 24 24 20 12 12 12 12 20 24 20 20 20 24 24 24 20 20 12 12 8 8 0 0 0 0 0 0 0 0 0 0 0 0 0 0 0 0 0 0 0 0 0 0 8 20 32 32 24 12 68 88 64 0 0
44 44 36 36 32 36 36 36 44 36 36 36 32 24 24 20 20 12 12 8 12 20 20 24 24 20 20 20 20 20 12 12 8 8 8 0 0 0 0 0 0 0 0 0 0 0 0 0 0 0 0 0 0 0 0 8 20 24 36 36 44 36 20 12 56 76 56 0 0
44 36 36 32 36 36 36 36 32 32 24 24 20 20 20 20 20 12 12 12 20 20 20 24 24 20 20 12 12 12 8 8 8 8 0 0 0 0 0 0 0 0 0 0 0 0 0 0 0 0 0 0 0 0 12 48 44 48 64 48 36 24 24 24 36 48 44 0 0
36 36 32 32 24 24 24 24 20 20 12 12 12 12 20 20 20 20 20 24 24 20 20 20 20 12 12 8 8 8 8 8 8 0 0 8 0 0 0 0 0 0 0 0 0 0 0 0 0 0 0 0 0 0 20 88 68 76 76 44 24 24 24 24 44 24 8 8 32
32 24 20 20 12 12 12 20 12 12 8 8 12 20 20 20 20 20 24 24 24 20 20 20 12 8 8 8 8 8 8 8 8 8 8 8 8 8 8 8 8 0 0 0 0 0 0 0 0 0 0 0 12 32 48 88 88 80 68 24 20 20 20 12 24 32 32 44 56
20 12 12 12 12 12 12 12 8 8 8 12 20 24 24 24 20 20 20 20 20 20 12 12 8 8 8 0 0 0 0 8 8 8 8 8 12 12 8 8 8 8 0 0 0 0 0 0 0 0 0 12 36 68 88 80 80 68 44 32 32 24 20 36 44 48 48 48 24